| time (UTC) | temp C | wind direction | speed KPH | gust KPH | rain 1hr cm | rain 24hr cm | rain mn cm | humidity % | barometer mb |
| 20260503224715 | 26 | 278 | 6.4 | 11.3 | 0.00 | 0.00 | 0.00 | 39 | 1009.8 |
| 20260503224213 | 26 | 266 | 4.8 | 11.3 | 0.00 | 0.00 | 0.00 | 40 | 1009.8 |
| 20260503223713 | 26 | 275 | 4.8 | 12.9 | 0.00 | 0.00 | 0.00 | 42 | 1010.2 |
| 20260503223212 | 26 | 25 | 4.8 | 12.9 | 0.00 | 0.00 | 0.00 | 41 | 1010.2 |
| 20260503222711 | 26 | 318 | 3.2 | 12.9 | 0.00 | 0.00 | 0.00 | 42 | 1010.2 |
| 20260503222210 | 26 | 278 | 4.8 | 12.9 | 0.00 | 0.00 | 0.00 | 41 | 1010.2 |
| 20260503221710 | 26 | 311 | 3.2 | 11.3 | 0.00 | 0.00 | 0.00 | 43 | 1010.2 |
| 20260503221208 | 26 | 336 | 3.2 | 9.7 | 0.00 | 0.00 | 0.00 | 42 | 1010.5 |
| 20260503220708 | 26 | 15 | 3.2 | 11.3 | 0.00 | 0.00 | 0.00 | 41 | 1010.5 |
| 20260503220207 | 26 | 328 | 4.8 | 11.3 | 0.00 | 0.00 | 0.00 | 40 | 1010.5 |
| 20260503215706 | 27 | 275 | 3.2 | 11.3 | 0.00 | 0.00 | 0.00 | 40 | 1010.5 |
| 20260503215205 | 26 | 51 | 3.2 | 8.0 | 0.00 | 0.00 | 0.00 | 40 | 1010.5 |
| 20260503214704 | 26 | 60 | 3.2 | 8.0 | 0.00 | 0.00 | 0.00 | 40 | 1010.5 |
| 20260503214203 | 26 | 5 | 4.8 | 8.0 | 0.00 | 0.00 | 0.00 | 39 | 1010.5 |
| 20260503213702 | 26 | 52 | 3.2 | 8.0 | 0.00 | 0.00 | 0.00 | 39 | 1010.5 |
| 20260503213201 | 27 | 34 | 4.8 | 9.7 | 0.00 | 0.00 | 0.00 | 40 | 1010.5 |
| 20260503212701 | 26 | 325 | 3.2 | 9.7 | 0.00 | 0.00 | 0.00 | 39 | 1010.5 |
| 20260503212157 | 26 | 293 | 3.2 | 9.7 | 0.00 | 0.00 | 0.00 | 40 | 1010.5 |
| 20260503211656 | 26 | 300 | 4.8 | 9.7 | 0.00 | 0.00 | 0.00 | 40 | 1010.8 |
| 20260503211156 | 26 | 317 | 3.2 | 9.7 | 0.00 | 0.00 | 0.00 | 42 | 1010.8 |
| 20260503210655 | 26 | 32 | 4.8 | 9.7 | 0.00 | 0.00 | 0.00 | 41 | 1010.8 |
| 20260503210154 | 26 | 309 | 3.2 | 9.7 | 0.00 | 0.00 | 0.00 | 41 | 1010.8 |
| 20260503205653 | 26 | 283 | 3.2 | 9.7 | 0.00 | 0.00 | 0.00 | 42 | 1010.8 |
| 20260503205152 | 26 | 264 | 3.2 | 9.7 | 0.00 | 0.00 | 0.00 | 40 | 1010.8 |
| 20260503204620 | 26 | 46 | 1.6 | 9.7 | 0.00 | 0.00 | 0.00 | 41 | 1010.8 |
| 20260503204118 | 26 | 271 | 4.8 | 9.7 | 0.00 | 0.00 | 0.00 | 41 | 1011.2 |
| 20260503203545 | 26 | 27 | 3.2 | 9.7 | 0.00 | 0.00 | 0.00 | 41 | 1011.2 |
| 20260503203044 | 26 | 263 | 3.2 | 9.7 | 0.00 | 0.00 | 0.00 | 41 | 1011.2 |
| 20260503202543 | 25 | 44 | 0.0 | 9.7 | 0.00 | 0.00 | 0.00 | 42 | 1011.2 |
| 20260503202043 | 26 | 273 | 6.4 | 9.7 | 0.00 | 0.00 | 0.00 | 41 | 1011.2 |
| 20260503201510 | 25 | 285 | 0.0 | 11.3 | 0.00 | 0.00 | 0.00 | 42 | 1011.2 |
| 20260503200938 | 25 | 31 | 3.2 | 11.3 | 0.00 | 0.00 | 0.00 | 43 | 1011.5 |
| 20260503200437 | 25 | 260 | 4.8 | 11.3 | 0.00 | 0.00 | 0.00 | 43 | 1011.5 |
| 20260503195936 | 25 | 68 | 1.6 | 11.3 | 0.00 | 0.00 | 0.00 | 44 | 1011.5 |
| 20260503195434 | 25 | 278 | 4.8 | 9.7 | 0.00 | 0.00 | 0.00 | 42 | 1011.5 |
| 20260503194934 | 25 | 273 | 3.2 | 11.3 | 0.00 | 0.00 | 0.00 | 43 | 1011.9 |
| 20260503194433 | 25 | 22 | 3.2 | 11.3 | 0.00 | 0.00 | 0.00 | 43 | 1011.9 |
| 20260503193932 | 25 | 332 | 3.2 | 11.3 | 0.00 | 0.00 | 0.00 | 44 | 1011.9 |
| 20260503193431 | 25 | 9 | 4.8 | 11.3 | 0.00 | 0.00 | 0.00 | 43 | 1011.9 |
| 20260503192931 | 25 | 263 | 1.6 | 11.3 | 0.00 | 0.00 | 0.00 | 44 | 1011.9 |
| 20260503192430 | 25 | 28 | 3.2 | 11.3 | 0.00 | 0.00 | 0.00 | 43 | 1012.2 |
| 20260503191929 | 24 | 275 | 4.8 | 11.3 | 0.00 | 0.00 | 0.00 | 44 | 1012.2 |
| 20260503191356 | 24 | 268 | 3.2 | 8.0 | 0.00 | 0.00 | 0.00 | 45 | 1012.2 |
| 20260503190856 | 24 | 274 | 4.8 | 8.0 | 0.00 | 0.00 | 0.00 | 45 | 1012.2 |
| 20260503190355 | 23 | 3 | 3.2 | 8.0 | 0.00 | 0.00 | 0.00 | 45 | 1012.2 |
| 20260503185854 | 23 | 274 | 1.6 | 9.7 | 0.00 | 0.00 | 0.00 | 46 | 1012.2 |
| 20260503185353 | 23 | 20 | 3.2 | 9.7 | 0.00 | 0.00 | 0.00 | 48 | 1012.5 |
| 20260503184851 | 23 | 39 | 3.2 | 9.7 | 0.00 | 0.00 | 0.00 | 50 | 1012.5 |
| 20260503184350 | 22 | 38 | 4.8 | 9.7 | 0.00 | 0.00 | 0.00 | 50 | 1012.5 |
| 20260503183850 | 23 | 38 | 6.4 | 8.0 | 0.00 | 0.00 | 0.00 | 49 | 1012.5 |
| 20260503183318 | 23 | 32 | 4.8 | 8.0 | 0.00 | 0.00 | 0.00 | 48 | 1012.5 |
| 20260503182817 | 23 | 325 | 3.2 | 8.0 | 0.00 | 0.00 | 0.00 | 49 | 1012.5 |
| 20260503182244 | 22 | 19 | 3.2 | 9.7 | 0.00 | 0.00 | 0.00 | 50 | 1012.5 |
| 20260503181712 | 22 | 36 | 4.8 | 9.7 | 0.00 | 0.00 | 0.00 | 49 | 1012.5 |
| 20260503181211 | 22 | 24 | 4.8 | 9.7 | 0.00 | 0.00 | 0.00 | 50 | 1012.9 |
| 20260503180710 | 22 | 30 | 4.8 | 9.7 | 0.00 | 0.00 | 0.00 | 49 | 1012.9 |
| 20260503180209 | 22 | 33 | 6.4 | 9.7 | 0.00 | 0.00 | 0.00 | 50 | 1012.9 |
| 20260503175708 | 22 | 35 | 6.4 | 9.7 | 0.00 | 0.00 | 0.00 | 49 | 1012.9 |
| 20260503175207 | 22 | 38 | 3.2 | 9.7 | 0.00 | 0.00 | 0.00 | 50 | 1012.9 |
| 20260503174706 | 22 | 32 | 3.2 | 9.7 | 0.00 | 0.00 | 0.00 | 50 | 1012.9 |
| 20260503174206 | 21 | 41 | 4.8 | 9.7 | 0.00 | 0.00 | 0.00 | 51 | 1012.9 |
| 20260503173705 | 21 | 36 | 6.4 | 9.7 | 0.00 | 0.00 | 0.00 | 51 | 1012.9 |
| 20260503173204 | 21 | 38 | 8.0 | 9.7 | 0.00 | 0.00 | 0.00 | 51 | 1012.9 |
| 20260503172633 | 21 | 41 | 3.2 | 6.4 | 0.00 | 0.00 | 0.00 | 54 | 1012.9 |
| 20260503172131 | 21 | 40 | 3.2 | 6.4 | 0.00 | 0.00 | 0.00 | 56 | 1013.2 |
| 20260503171630 | 21 | 24 | 3.2 | 6.4 | 0.00 | 0.00 | 0.00 | 55 | 1013.2 |
| 20260503171129 | 20 | 31 | 3.2 | 6.4 | 0.00 | 0.00 | 0.00 | 56 | 1013.2 |
| 20260503170629 | 20 | 44 | 4.8 | 6.4 | 0.00 | 0.00 | 0.00 | 55 | 1013.2 |
| 20260503170128 | 20 | 33 | 4.8 | 6.4 | 0.00 | 0.00 | 0.00 | 58 | 1013.2 |
| 20260503151007 | 15 | 240 | 0.0 | 0.0 | 0.00 | 0.00 | 0.00 | 75 | 1013.5 |
| 20260503150435 | 14 | 240 | 0.0 | 0.0 | 0.00 | 0.00 | 0.00 | 78 | 1013.5 |
| 20260503140218 | 10 | 240 | 0.0 | 0.0 | 0.00 | 0.00 | 0.00 | 87 | 1013.5 |
| 20260503131138 | 9 | 240 | 0.0 | 0.0 | 0.00 | 0.00 | 0.00 | 87 | 1013.2 |
| 20260503130638 | 9 | 240 | 0.0 | 0.0 | 0.00 | 0.00 | 0.00 | 87 | 1013.2 |
| 20260503130136 | 9 | 240 | 0.0 | 0.0 | 0.00 | 0.00 | 0.00 | 87 | 1013.2 |
| 20260503120127 | 10 | 240 | 0.0 | 0.0 | 0.00 | 0.00 | 0.00 | 86 | 1013.5 |
| 20260503110445 | 10 | 240 | 0.0 | 0.0 | 0.00 | 0.00 | 0.00 | 84 | 1013.5 |
| 20260503090120 | 11 | 240 | 0.0 | 0.0 | 0.00 | 0.00 | 0.00 | 82 | 1013.5 |
| 20260503081507 | 12 | 240 | 0.0 | 0.0 | 0.00 | 0.00 | 0.00 | 79 | 1013.5 |
| 20260503081006 | 12 | 240 | 0.0 | 0.0 | 0.00 | 0.00 | 0.00 | 80 | 1013.5 |
| 20260503080434 | 12 | 240 | 0.0 | 0.0 | 0.00 | 0.00 | 0.00 | 80 | 1013.5 |
| 20260503072928 | 12 | 240 | 0.0 | 0.0 | 0.00 | 0.00 | 0.00 | 78 | 1013.5 |
| 20260503072427 | 12 | 240 | 0.0 | 0.0 | 0.00 | 0.00 | 0.00 | 77 | 1013.5 |
| 20260503071921 | 12 | 240 | 0.0 | 0.0 | 0.00 | 0.00 | 0.00 | 77 | 1013.5 |
| 20260503071420 | 12 | 240 | 0.0 | 0.0 | 0.00 | 0.00 | 0.00 | 77 | 1013.5 |
| 20260503070919 | 13 | 240 | 0.0 | 0.0 | 0.00 | 0.00 | 0.00 | 77 | 1013.5 |
| 20260503070418 | 13 | 240 | 0.0 | 0.0 | 0.00 | 0.00 | 0.00 | 76 | 1013.5 |
| 20260503054823 | 15 | 240 | 0.0 | 0.0 | 0.00 | 0.00 | 0.00 | 71 | 1013.2 |
| 20260503054323 | 15 | 240 | 0.0 | 0.0 | 0.00 | 0.00 | 0.00 | 70 | 1013.2 |
| 20260503053750 | 15 | 240 | 0.0 | 0.0 | 0.00 | 0.00 | 0.00 | 69 | 1013.5 |
| 20260503053250 | 15 | 240 | 0.0 | 0.0 | 0.00 | 0.00 | 0.00 | 69 | 1013.2 |
| 20260503052748 | 15 | 240 | 0.0 | 0.0 | 0.00 | 0.00 | 0.00 | 68 | 1013.2 |
| 20260503052217 | 15 | 240 | 0.0 | 0.0 | 0.00 | 0.00 | 0.00 | 68 | 1013.5 |
| 20260503051715 | 15 | 240 | 0.0 | 0.0 | 0.00 | 0.00 | 0.00 | 67 | 1013.2 |
| 20260503051215 | 16 | 240 | 0.0 | 0.0 | 0.00 | 0.00 | 0.00 | 66 | 1013.5 |
| 20260503050714 | 16 | 240 | 0.0 | 0.0 | 0.00 | 0.00 | 0.00 | 65 | 1013.2 |
| 20260503050213 | 16 | 240 | 0.0 | 0.0 | 0.00 | 0.00 | 0.00 | 65 | 1013.2 |
| 20260503045711 | 16 | 240 | 0.0 | 0.0 | 0.00 | 0.00 | 0.00 | 64 | 1013.2 |
| 20260503045210 | 16 | 240 | 0.0 | 0.0 | 0.00 | 0.00 | 0.00 | 64 | 1013.2 |
| 20260503044710 | 17 | 240 | 0.0 | 0.0 | 0.00 | 0.00 | 0.00 | 64 | 1013.2 |
| 20260503044138 | 17 | 240 | 0.0 | 0.0 | 0.00 | 0.00 | 0.00 | 61 | 1013.2 |
| 20260503043637 | 17 | 240 | 0.0 | 0.0 | 0.00 | 0.00 | 0.00 | 60 | 1013.2 |
| 20260503043137 | 17 | 240 | 0.0 | 0.0 | 0.00 | 0.00 | 0.00 | 59 | 1013.2 |
| 20260503042636 | 17 | 240 | 0.0 | 1.6 | 0.00 | 0.00 | 0.00 | 58 | 1013.2 |
| 20260503042135 | 17 | 240 | 0.0 | 1.6 | 0.00 | 0.00 | 0.00 | 57 | 1012.9 |
| 20260503041635 | 17 | 240 | 0.0 | 1.6 | 0.00 | 0.00 | 0.00 | 57 | 1012.9 |
| 20260503041134 | 18 | 240 | 0.0 | 1.6 | 0.00 | 0.00 | 0.00 | 57 | 1012.9 |
| 20260503040632 | 18 | 240 | 0.0 | 0.0 | 0.00 | 0.00 | 0.00 | 57 | 1012.9 |
| 20260503040132 | 18 | 240 | 0.0 | 0.0 | 0.00 | 0.00 | 0.00 | 58 | 1012.9 |
| 20260503035559 | 18 | 240 | 0.0 | 0.0 | 0.00 | 0.00 | 0.00 | 57 | 1012.5 |
| 20260503035027 | 18 | 240 | 0.0 | 1.6 | 0.00 | 0.00 | 0.00 | 57 | 1012.5 |
| 20260503034526 | 18 | 240 | 0.0 | 1.6 | 0.00 | 0.00 | 0.00 | 57 | 1012.5 |
| 20260503034026 | 19 | 240 | 0.0 | 1.6 | 0.00 | 0.00 | 0.00 | 56 | 1012.5 |
| 20260503033524 | 19 | 240 | 0.0 | 3.2 | 0.00 | 0.00 | 0.00 | 56 | 1012.2 |
| 20260503033024 | 19 | 240 | 0.0 | 3.2 | 0.00 | 0.00 | 0.00 | 56 | 1012.2 |
| 20260503032523 | 20 | 240 | 0.0 | 3.2 | 0.00 | 0.00 | 0.00 | 55 | 1012.2 |
| 20260503032022 | 20 | 236 | 1.6 | 3.2 | 0.00 | 0.00 | 0.00 | 54 | 1012.2 |
| 20260503031521 | 20 | 274 | 0.0 | 3.2 | 0.00 | 0.00 | 0.00 | 53 | 1012.2 |
| 20260503031020 | 20 | 274 | 0.0 | 3.2 | 0.00 | 0.00 | 0.00 | 53 | 1012.2 |
| 20260503030448 | 21 | 274 | 0.0 | 4.8 | 0.00 | 0.00 | 0.00 | 51 | 1012.2 |
| 20260503025916 | 21 | 274 | 0.0 | 9.7 | 0.00 | 0.00 | 0.00 | 49 | 1012.2 |
| 20260503025416 | 21 | 298 | 1.6 | 9.7 | 0.00 | 0.00 | 0.00 | 48 | 1011.9 |
| 20260503024914 | 22 | 273 | 3.2 | 9.7 | 0.00 | 0.00 | 0.00 | 48 | 1011.9 |
| 20260503024413 | 22 | 263 | 3.2 | 9.7 | 0.00 | 0.00 | 0.00 | 47 | 1011.9 |
| 20260503023913 | 22 | 339 | 0.0 | 9.7 | 0.00 | 0.00 | 0.00 | 48 | 1011.9 |
| 20260503023412 | 22 | 34 | 0.0 | 11.3 | 0.00 | 0.00 | 0.00 | 47 | 1011.9 |
| 20260503022911 | 22 | 279 | 4.8 | 11.3 | 0.00 | 0.00 | 0.00 | 47 | 1011.9 |
| 20260503022410 | 22 | 271 | 6.4 | 11.3 | 0.00 | 0.00 | 0.00 | 46 | 1011.9 |
| 20260503021909 | 23 | 288 | 6.4 | 11.3 | 0.00 | 0.00 | 0.00 | 47 | 1011.9 |
| 20260503021409 | 23 | 278 | 3.2 | 6.4 | 0.00 | 0.00 | 0.00 | 47 | 1011.9 |
| 20260503020908 | 23 | 316 | 3.2 | 9.7 | 0.00 | 0.00 | 0.00 | 47 | 1011.9 |
| 20260503020407 | 23 | 32 | 0.0 | 9.7 | 0.00 | 0.00 | 0.00 | 48 | 1011.9 |
| 20260503015906 | 23 | 34 | 1.6 | 9.7 | 0.00 | 0.00 | 0.00 | 47 | 1011.9 |
| 20260503015334 | 23 | 292 | 3.2 | 9.7 | 0.00 | 0.00 | 0.00 | 48 | 1011.9 |
| 20260503014802 | 23 | 293 | 3.2 | 8.0 | 0.00 | 0.00 | 0.00 | 48 | 1011.9 |
| 20260503014300 | 23 | 280 | 4.8 | 8.0 | 0.00 | 0.00 | 0.00 | 48 | 1011.9 |
| 20260503013759 | 23 | 66 | 0.0 | 9.7 | 0.00 | 0.00 | 0.00 | 49 | 1011.9 |
| 20260503013227 | 23 | 9 | 4.8 | 16.1 | 0.00 | 0.00 | 0.00 | 49 | 1011.9 |
| 20260503012655 | 23 | 277 | 4.8 | 16.1 | 0.00 | 0.00 | 0.00 | 48 | 1011.9 |
| 20260503012155 | 23 | 282 | 4.8 | 16.1 | 0.00 | 0.00 | 0.00 | 49 | 1011.9 |
| 20260503011654 | 23 | 290 | 6.4 | 12.9 | 0.00 | 0.00 | 0.00 | 49 | 1011.9 |
| 20260503011154 | 23 | 48 | 0.0 | 12.9 | 0.00 | 0.00 | 0.00 | 50 | 1011.9 |
| 20260503010622 | 23 | 6 | 1.6 | 12.9 | 0.00 | 0.00 | 0.00 | 50 | 1011.9 |
| 20260503010120 | 23 | 258 | 3.2 | 8.0 | 0.00 | 0.00 | 0.00 | 50 | 1011.9 |
| 20260503005619 | 23 | 281 | 4.8 | 11.3 | 0.00 | 0.00 | 0.00 | 50 | 1011.9 |
| 20260503005119 | 23 | 13 | 3.2 | 11.3 | 0.00 | 0.00 | 0.00 | 50 | 1012.2 |
| 20260503004618 | 23 | 357 | 3.2 | 11.3 | 0.00 | 0.00 | 0.00 | 50 | 1012.2 |
| 20260503004046 | 23 | 275 | 4.8 | 11.3 | 0.00 | 0.00 | 0.00 | 49 | 1012.2 |
| 20260503003545 | 23 | 281 | 4.8 | 12.9 | 0.00 | 0.00 | 0.00 | 49 | 1012.2 |
| 20260503003045 | 23 | 278 | 3.2 | 12.9 | 0.00 | 0.00 | 0.00 | 49 | 1012.2 |
| 20260503002544 | 23 | 263 | 3.2 | 12.9 | 0.00 | 0.00 | 0.00 | 49 | 1012.2 |
| 20260503002044 | 23 | 260 | 3.2 | 12.9 | 0.00 | 0.00 | 0.00 | 49 | 1012.2 |
| 20260503001543 | 23 | 264 | 3.2 | 9.7 | 0.00 | 0.00 | 0.00 | 49 | 1012.2 |
| 20260503001042 | 23 | 333 | 3.2 | 11.3 | 0.00 | 0.00 | 0.00 | 49 | 1012.2 |
| 20260503000541 | 23 | 343 | 3.2 | 11.3 | 0.00 | 0.00 | 0.00 | 48 | 1012.2 |
| 20260503000040 | 23 | 274 | 4.8 | 11.3 | 0.00 | 0.00 | 0.00 | 47 | 1012.2 |
| 20260502235539 | 23 | 331 | 4.8 | 11.3 | 0.00 | 0.00 | 0.00 | 48 | 1012.2 |
| 20260502235008 | 23 | 305 | 4.8 | 12.9 | 0.00 | 0.00 | 0.00 | 48 | 1012.2 |
| 20260502234436 | 23 | 13 | 1.6 | 12.9 | 0.00 | 0.00 | 0.00 | 49 | 1012.5 |
| 20260502233904 | 23 | 351 | 3.2 | 12.9 | 0.00 | 0.00 | 0.00 | 49 | 1012.5 |
| 20260502233403 | 23 | 288 | 6.4 | 12.9 | 0.00 | 0.00 | 0.00 | 50 | 1012.5 |
| 20260502232903 | 23 | 9 | 3.2 | 14.5 | 0.00 | 0.00 | 0.00 | 49 | 1012.5 |
| 20260502232402 | 23 | 352 | 3.2 | 14.5 | 0.00 | 0.00 | 0.00 | 49 | 1012.9 |
| 20260502231901 | 23 | 348 | 4.8 | 14.5 | 0.00 | 0.00 | 0.00 | 49 | 1012.9 |
| 20260502231400 | 23 | 291 | 3.2 | 14.5 | 0.00 | 0.00 | 0.00 | 50 | 1012.9 |
| 20260502230859 | 23 | 326 | 3.2 | 19.3 | 0.00 | 0.00 | 0.00 | 50 | 1012.9 |
| 20260502230358 | 23 | 299 | 3.2 | 19.3 | 0.00 | 0.00 | 0.00 | 50 | 1013.2 |
| 20260502225857 | 23 | 286 | 4.8 | 19.3 | 0.00 | 0.00 | 0.00 | 49 | 1013.2 |
| 20260502225356 | 23 | 273 | 8.0 | 19.3 | 0.00 | 0.00 | 0.00 | 48 | 1013.2 |